Other Public Products
Issued by NWS Charleston, SC

Current Version | Previous Version | Graphics & Text | Print | Product List | Glossary On
Versions: 1 2 3 4 5 6 7 8 9 10 11 12 13 14 15 16 17 18 19 20 21 22 23 24 25 26 27 28 29 30 31 32 33 34 35 36 37 38 39 40 41 42 43 44 45 46 47 48 49 50
000
FPUS82 KCHS 231211
OPUCHS

TEST...KCHS/KSAV Gateway Observations...TEST
National Weather Service Charleston SC
700 AM EST THU FEB 23 2017

NOTE: "fair" indicates few or no clouds below 12,000 feet with no
significant weather and/or obstructions to visibility.

SCZ050-WAZ558-NCZ071-TXZ119-213-PAZ071-DCZ001-FLZ074-172-MI076-
NYZ176-178-MAZ016-IL014-TNZ027-NJZ106-GAZ044-MD014-231300-
...Gateway Observations for Charleston International...

CITY           SKY/WX    TMP DP  RH WIND       PRES   REMARKS
Chas Airport   MOCLDY    61  57  87 NE9       29.86R
6HR MIN TEMP:  59; 6HR MAX TEMP:  62;

Seattle        CLOUDY    35  34  96 CALM      30.22R
6HR MIN TEMP:  34; 6HR MAX TEMP:  38; 6HR PCP: TRACE;

Charlotte      PTCLDY    52  51  97 N5        29.94R
6HR MIN TEMP:  50; 6HR MAX TEMP:  58;

Dallas DFW     CLEAR     55  48  77 S7        29.62S
6HR MIN TEMP:  55; 6HR MAX TEMP:  63;

Dallas Love    CLEAR     55  47  74 SE9       29.63F
6HR MIN TEMP:  54; 6HR MAX TEMP:  67;

Philladelphia  FOG       49  48  97 CALM      29.91R VSB 1/2
6HR MIN TEMP:  46; 6HR MAX TEMP:  49;

Wash National  MOCLDY    54  53  97 S5        29.91R
6HR MIN TEMP:  53; 6HR MAX TEMP:  55;

Baltimore      FOG       47  47 100 CALM      29.90R VSB 1/4
6HR MIN TEMP:  45; 6HR MAX TEMP:  49;

Miami          CLOUDY    65  59  81 SW3       29.66R
6HR MIN TEMP:  64; 6HR MAX TEMP:  65;

Detroit        MOCLDY    56  53  90 SW14      29.67S
6HR MIN TEMP:  53; 6HR MAX TEMP:  59;

Newark         FOG       43  41  93 SW6       29.90R VSB 1
6HR MIN TEMP:  43; 6HR MAX TEMP:  48;

Laguardia      PTCLDY    44  40  85 CALM      29.89S
6HR MIN TEMP:  42; 6HR MAX TEMP:  48;

J F K          FOG       43  43 100 S5        29.91R VSB 1/8
6HR MIN TEMP:  38; 6HR MAX TEMP:  43;

Boston Logan   MOCLDY    39  38  96 S6        29.87S WCI  35
6HR MIN TEMP:  39; 6HR MAX TEMP:  43;

Ft. Lauderdale MOCLDY    63  62  97 SW5       29.65R
6HR MIN TEMP:  63; 6HR MAX TEMP:  65;

Chicago O`Hare CLEAR     49  42  77 NW7       29.72R
6HR MIN TEMP:  48; 6HR MAX TEMP:  59;

Chicago Midway CLEAR     49  44  83 NW7       29.71S
6HR MIN TEMP:  49; 6HR MAX TEMP:  59;

Houston Bush   CLEAR     52  51  97 CALM      29.76R
6HR MIN TEMP:  50; 6HR MAX TEMP:  62;

Houston Hobby  CLEAR     55  54  96 SE3       29.75R
6HR MIN TEMP:  55; 6HR MAX TEMP:  60;

Nashville      CLEAR     53  50  89 CALM      29.86R
6HR MIN TEMP:  52; 6HR MAX TEMP:  56;

Atlanta        PTCLDY    56  54  93 NE8       29.89R
6HR MIN TEMP:  55; 6HR MAX TEMP:  59;


$$

GAZ044-118-TXZ119-213-NCZ071-DCZ001-MDZ014-506-PAZ021-071-NJZ106-
NYZ176-178-MAZ106-OHZ011-021-055-MIZ076-KYZ091-ILZ014-INZ047-
MNZ060-ONZ431-231300-
...Gateway Observations for Savannah International...

CITY           SKY/WX    TMP DP  RH WIND       PRES   REMARKS
Savannah Arpt  MOCLDY    60  57  89 NE8       29.82R
6HR MIN TEMP:  60; 6HR MAX TEMP:  63;

Atlanta        PTCLDY    56  54  93 NE8       29.89R
6HR MIN TEMP:  55; 6HR MAX TEMP:  59;

Charlotte      PTCLDY    52  51  97 N5        29.94R
6HR MIN TEMP:  50; 6HR MAX TEMP:  58;

Dallas DFW     CLEAR     55  48  77 S7        29.62S
6HR MIN TEMP:  55; 6HR MAX TEMP:  63;

Houston Bush   CLEAR     52  51  97 CALM      29.76R
6HR MIN TEMP:  50; 6HR MAX TEMP:  62;

Wash National  MOCLDY    54  53  97 S5        29.91R
6HR MIN TEMP:  53; 6HR MAX TEMP:  55;

Wash Dulles    MOCLDY    53  51  93 S5        29.90R
6HR MIN TEMP:  52; 6HR MAX TEMP:  55;

Baltimore      FOG       47  47 100 CALM      29.90R VSB 1/4
6HR MIN TEMP:  45; 6HR MAX TEMP:  49;

Philadelphia   FOG       49  48  97 CALM      29.91R VSB 1/2
6HR MIN TEMP:  46; 6HR MAX TEMP:  49;

Newark         FOG       43  41  93 SW6       29.90R VSB 1
6HR MIN TEMP:  43; 6HR MAX TEMP:  48;

Laguardia      PTCLDY    44  40  85 CALM      29.89S
6HR MIN TEMP:  42; 6HR MAX TEMP:  48;

J F K          FOG       43  43 100 S5        29.91R VSB 1/8
6HR MIN TEMP:  38; 6HR MAX TEMP:  43;

Boston         MOCLDY    39  38  96 S6        29.87S WCI  35
6HR MIN TEMP:  39; 6HR MAX TEMP:  43;

Pittsburg      CLOUDY    54  53  97 S3        29.81S
6HR MIN TEMP:  54; 6HR MAX TEMP:  56; 6HR PCP: TRACE;

Akron          CLOUDY    57  53  86 SW10      29.77S FOG
6HR MIN TEMP:  55; 6HR MAX TEMP:  57;

Cleveland      MOCLDY    59  53  80 S14       29.74F
6HR MIN TEMP:  58; 6HR MAX TEMP:  60;

Cincinnati     CLOUDY    59  55  87 S8        29.81S
6HR MIN TEMP:  56; 6HR MAX TEMP:  60;

Columbus       CLOUDY    56  55  99 S8        29.79S
Detroit        MOCLDY    56  53  90 SW14      29.67S
6HR MIN TEMP:  53; 6HR MAX TEMP:  59;

Chicago O`Hare CLEAR     49  42  77 NW7       29.72R
6HR MIN TEMP:  48; 6HR MAX TEMP:  59;

Minneapolis    CLOUDY    33  25  72 N10       29.90R WCI  25
6HR MIN TEMP:  33; 6HR MAX TEMP:  38;

Indianapolis   MOCLDY    53  52  96 SW7       29.76S
6HR MIN TEMP:  53; 6HR MAX TEMP:  58;

Toronto Canada CLOUDY    50  48  93 S3        29.61F

$$




USA.gov is the U.S. government's official web portal to all federal, state and local government web resources and services.